sat.trackr.live / text

‹ back to catalog

STARLINK-37878

NORAD 69479 · 2026-131B

PAYLOAD ACTIVE UNKNOWN

§ Identity

Operator
Country
US
Launch date
2026-06-11
Launch site
AFWTR
Launch vehicle
Mass (kg)
RCS (m²)

Purposes: comms

External: N2YO · Heavens-Above · Gunter

§ Orbital elements

Epoch: 2026-09-20T01:05:34.813248Z

Period
93.91 min
Inclination
97.2814°
Eccentricity
0.0001001
Mean motion
15.33409931 rev/d
Perigee alt
465.0 km
Apogee alt
466.3 km
Semi-major
6,843.8 km
B*
3.4061e-4
RAAN
283.8540°
Arg perigee
83.1164°
Mean anomaly
277.0193°
Rev number
1,682

§ Raw data

STARLINK-378781 69479U 26131B   26263.04554182  .00010925  00000+0  34061-3 0  99992 69479  97.2814 283.8540 0001001  83.1164 277.0193 15.33409931 16827

JSON: /api/v1/satellites/69479 · /tle

For live sub-satellite position, see the globe view (requires WebGL).

§ Visibility from observer

Set your observer location to see the next 7 days of passes ≥ 10°. The values pass through the URL so the page stays shareable.

No JS? Fill the form by hand. The geolocation button needs JavaScript.